QPF
0.00 0.00 0.00 0.00 0.02 0.02 0.02 0.02 0.03 0.02 0.02 0.01 0.01 0.01 0.00 0.00 0.00 0.00 0.00 0.01 0.01 0.02 0.03 0.04 0.04 0.04 0.06 0.06 0.06 0.03 0.03 0.02 0.03 0.04 0.03 0.03 0.04 0.05 0.08 0.10 0.13 0.05 0.05
0.00 0.00 0.00 0.00 0.01 0.02 0.02 0.03 0.03 0.03 0.03 0.02 0.01 0.01 0.01 0.01 0.01 0.01 0.01 0.01 0.01 0.02 0.03 0.04 0.03 0.05 0.04 0.04 0.04 0.04 0.03 0.03 0.03 0.04 0.04 0.04 0.05 0.04 0.07 0.10 0.13 0.06 0.05
0.00 0.00 0.00 0.00 0.00 0.01 0.02 0.02 0.02 0.02 0.03 0.02 0.02 0.01 0.01 0.01 0.01 0.01 0.02 0.01 0.02 0.02 0.02 0.03 0.03 0.04 0.03 0.04 0.04 0.04 0.04 0.06 0.08 0.11 0.14 0.08 0.03 0.04 0.05 0.07 0.06 0.07 0.06
0.00 0.00 0.00 0.00 0.00 0.01 0.02 0.01 0.02 0.03 0.03 0.03 0.03 0.02 0.02 0.02 0.01 0.01 0.01 0.01 0.02 0.03 0.03 0.04 0.03 0.03 0.04 0.04 0.04 0.05 0.05 0.06 0.10 0.21 0.18 0.08 0.03 0.03 0.05 0.05 0.06 0.09 0.06
0.00 0.00 0.00 0.00 0.00 0.00 0.01 0.02 0.02 0.03 0.03 0.04 0.03 0.03 0.03 0.02 0.02 0.02 0.01 0.02 0.03 0.04 0.04 0.04 0.02 0.03 0.03 0.02 0.02 0.04 0.05 0.06 0.12 0.20 0.10 0.07 0.03 0.03 0.05 0.04 0.05 0.06 0.04
0.00 0.01 0.00 0.00 0.00 0.00 0.01 0.02 0.02 0.02 0.03 0.03 0.03 0.03 0.03 0.04 0.04 0.02 0.02 0.03 0.03 0.04 0.05 0.05 0.02 0.02 0.02 0.03 0.02 0.03 0.03 0.07 0.15 0.08 0.05 0.07 0.03 0.04 0.04 0.05 0.06 0.04 0.02
0.02 0.04 0.02 0.01 0.01 0.01 0.01 0.01 0.02 0.02 0.02 0.02 0.02 0.02 0.03 0.03 0.03 0.03 0.02 0.03 0.03 0.03 0.04 0.05 0.03 0.02 0.03 0.04 0.02 0.01 0.01 0.06 0.08 0.03 0.05 0.06 0.02 0.03 0.03 0.05 0.06 0.03 0.02
0.04 0.04 0.05 0.02 0.01 0.01 0.01 0.01 0.02 0.02 0.02 0.02 0.02 0.02 0.03 0.03 0.02 0.02 0.02 0.03 0.03 0.03 0.04 0.03 0.01 0.01 0.03 0.03 0.01 0.01 0.01 0.05 0.04 0.01 0.02 0.02 0.01 0.02 0.03 0.03 0.03 0.03 0.03
0.04 0.04 0.04 0.04 0.03 0.03 0.04 0.03 0.03 0.03 0.03 0.03 0.03 0.02 0.03 0.03 0.02 0.02 0.02 0.04 0.04 0.03 0.04 0.03 0.02 0.02 0.03 0.02 0.01 0.00 0.01 0.04 0.04 0.01 0.01 0.01 0.01 0.02 0.02 0.03 0.03 0.03 0.03
0.05 0.07 0.05 0.05 0.07 0.06 0.05 0.05 0.05 0.05 0.04 0.03 0.03 0.03 0.03 0.03 0.03 0.04 0.03 0.04 0.03 0.03 0.03 0.02 0.02 0.02 0.01 0.01 0.00 0.01 0.01 0.03 0.03 0.01 0.01 0.00 0.01 0.01 0.01 0.02 0.03 0.03 0.03
0.08 0.13 0.14 0.09 0.18 0.15 0.06 0.03 0.04 0.05 0.05 0.04 0.04 0.03 0.05 0.09 0.07 0.06 0.04 0.03 0.03 0.02 0.02 0.02 0.01 0.01 0.01 0.00 0.00 0.00 0.02 0.05 0.06 0.02 0.01 0.00 0.00 0.01 0.01 0.02 0.03 0.03 0.03
0.07 0.11 0.17 0.14 0.12 0.13 0.07 0.03 0.04 0.04 0.04 0.05 0.06 0.06 0.11 0.14 0.15 0.09 0.06 0.05 0.04 0.03 0.02 0.02 0.01 0.02 0.03 0.02 0.01 0.02 0.03 0.02 0.04 0.02 0.01 0.00 0.00 0.00 0.01 0.02 0.02 0.02 0.02
0.05 0.07 0.13 0.12 0.10 0.08 0.08 0.06 0.06 0.07 0.06 0.07 0.08 0.09 0.11 0.09 0.08 0.07 0.06 0.05 0.05 0.04 0.05 0.02 0.02 0.03 0.06 0.06 0.05 0.03 0.02 0.04 0.06 0.02 0.02 0.00 0.00 0.01 0.01 0.01 0.01 0.01 0.02
0.07 0.09 0.14 0.15 0.10 0.09 0.08 0.07 0.06 0.06 0.07 0.06 0.07 0.08 0.07 0.10 0.10 0.09 0.11 0.10 0.08 0.08 0.09 0.05 0.05 0.05 0.09 0.06 0.06 0.05 0.02 0.05 0.08 0.03 0.02 0.00 0.00 0.00 0.01 0.01 0.01 0.01 0.02
0.09 0.14 0.19 0.16 0.12 0.11 0.10 0.07 0.05 0.05 0.07 0.07 0.07 0.08 0.06 0.08 0.09 0.10 0.11 0.12 0.08 0.05 0.05 0.04 0.03 0.06 0.06 0.04 0.04 0.02 0.03 0.05 0.06 0.04 0.02 0.01 0.00 0.00 0.01 0.01 0.01 0.01 0.01
0.09 0.16 0.21 0.19 0.15 0.14 0.10 0.08 0.06 0.04 0.06 0.06 0.05 0.05 0.07 0.08 0.09 0.09 0.08 0.07 0.07 0.05 0.04 0.03 0.03 0.04 0.04 0.04 0.05 0.03 0.03 0.04 0.04 0.04 0.03 0.01 0.00 0.01 0.01 0.01 0.01 0.01 0.01
0.08 0.14 0.20 0.20 0.17 0.16 0.13 0.09 0.06 0.05 0.04 0.05 0.06 0.05 0.08 0.09 0.09 0.08 0.07 0.07 0.06 0.05 0.04 0.03 0.04 0.03 0.03 0.03 0.03 0.03 0.04 0.05 0.03 0.04 0.07 0.04 0.01 0.01 0.01 0.01 0.01 0.02 0.02
0.10 0.17 0.18 0.17 0.19 0.20 0.16 0.11 0.06 0.05 0.04 0.04 0.05 0.05 0.06 0.07 0.04 0.06 0.06 0.05 0.04 0.03 0.03 0.02 0.02 0.02 0.03 0.03 0.04 0.05 0.05 0.04 0.03 0.03 0.04 0.05 0.04 0.02 0.01 0.01 0.01 0.01 0.02
0.11 0.19 0.18 0.18 0.17 0.17 0.14 0.14 0.09 0.08 0.06 0.04 0.05 0.06 0.05 0.04 0.03 0.04 0.06 0.06 0.02 0.02 0.02 0.02 0.02 0.02 0.05 0.05 0.03 0.04 0.03 0.02 0.02 0.02 0.03 0.02 0.04 0.04 0.03 0.02 0.01 0.01 0.02
0.13 0.20 0.19 0.18 0.14 0.14 0.15 0.15 0.13 0.10 0.06 0.05 0.05 0.06 0.06 0.05 0.04 0.04 0.04 0.03 0.02 0.03 0.04 0.03 0.05 0.04 0.06 0.05 0.03 0.04 0.03 0.03 0.02 0.02 0.02 0.03 0.04 0.02 0.02 0.03 0.02 0.01 0.01
0.14 0.17 0.17 0.17 0.13 0.12 0.12 0.12 0.12 0.10 0.07 0.06 0.05 0.05 0.07 0.06 0.03 0.04 0.05 0.05 0.02 0.04 0.04 0.04 0.04 0.05 0.05 0.03 0.06 0.07 0.06 0.04 0.03 0.02 0.02 0.03 0.03 0.03 0.04 0.05 0.04 0.04 0.03
0.16 0.15 0.13 0.13 0.10 0.10 0.10 0.13 0.15 0.13 0.09 0.08 0.08 0.10 0.08 0.06 0.04 0.02 0.05 0.04 0.03 0.05 0.04 0.05 0.06 0.06 0.05 0.03 0.04 0.09 0.10 0.09 0.06 0.02 0.02 0.03 0.03 0.03 0.02 0.03 0.03 0.05 0.04
0.11 0.10 0.09 0.10 0.10 0.10 0.12 0.13 0.16 0.16 0.09 0.08 0.09 0.11 0.09 0.06 0.04 0.04 0.04 0.03 0.04 0.03 0.04 0.04 0.05 0.06 0.07 0.05 0.03 0.05 0.08 0.10 0.08 0.04 0.01 0.01 0.02 0.02 0.02 0.02 0.01 0.01 0.02
0.06 0.07 0.08 0.09 0.10 0.10 0.12 0.12 0.10 0.11 0.10 0.10 0.09 0.10 0.09 0.07 0.05 0.05 0.04 0.03 0.03 0.03 0.05 0.03 0.03 0.04 0.06 0.07 0.04 0.01 0.02 0.04 0.07 0.09 0.06 0.01 0.02 0.01 0.01 0.01 0.01 0.01 0.01
0.06 0.07 0.08 0.11 0.12 0.11 0.12 0.13 0.11 0.11 0.13 0.12 0.09 0.09 0.08 0.09 0.07 0.05 0.04 0.04 0.03 0.03 0.05 0.03 0.05 0.04 0.04 0.05 0.03 0.02 0.02 0.03 0.03 0.05 0.08 0.06 0.05 0.01 0.01 0.00 0.00 0.00 0.00
0.07 0.07 0.09 0.10 0.12 0.11 0.09 0.09 0.10 0.12 0.14 0.15 0.11 0.09 0.08 0.09 0.09 0.07 0.06 0.05 0.04 0.04 0.05 0.05 0.07 0.04 0.04 0.04 0.03 0.02 0.02 0.03 0.04 0.04 0.05 0.05 0.04 0.01 0.01 0.01 0.01 0.01 0.00
MSLP
1008.41 1008.53 1008.84 1009.33 1009.92 1010.54 1011.11 1011.56 1011.88 1012.08 1012.21 1012.34 1012.50 1012.73 1013.01 1013.32 1013.62 1013.88 1014.07 1014.19 1014.28 1014.36 1014.47 1014.63 1014.83 1015.07 1015.30 1015.52 1015.68 1015.80 1015.89 1015.98 1016.08 1016.24 1016.44 1016.68 1016.93 1017.18 1017.40 1017.58 1017.72 1017.84 1017.96
1008.29 1008.58 1009.03 1009.62 1010.26 1010.88 1011.40 1011.78 1012.03 1012.17 1012.28 1012.42 1012.63 1012.93 1013.29 1013.66 1014.01 1014.27 1014.44 1014.52 1014.55 1014.59 1014.65 1014.78 1014.97 1015.21 1015.46 1015.68 1015.85 1015.98 1016.08 1016.17 1016.29 1016.45 1016.67 1016.92 1017.20 1017.47 1017.70 1017.89 1018.05 1018.19 1018.32
1008.20 1008.64 1009.22 1009.90 1010.59 1011.21 1011.70 1012.03 1012.22 1012.33 1012.43 1012.58 1012.82 1013.16 1013.56 1013.96 1014.31 1014.55 1014.68 1014.72 1014.71 1014.70 1014.74 1014.85 1015.05 1015.29 1015.54 1015.77 1015.96 1016.10 1016.20 1016.31 1016.45 1016.64 1016.89 1017.18 1017.48 1017.76 1018.01 1018.21 1018.37 1018.52 1018.67
1008.13 1008.70 1009.40 1010.16 1010.90 1011.54 1012.01 1012.31 1012.48 1012.57 1012.66 1012.82 1013.08 1013.43 1013.83 1014.22 1014.54 1014.75 1014.84 1014.83 1014.79 1014.76 1014.80 1014.92 1015.12 1015.37 1015.63 1015.86 1016.04 1016.18 1016.30 1016.43 1016.60 1016.83 1017.11 1017.44 1017.77 1018.07 1018.33 1018.53 1018.70 1018.85 1019.00
1008.06 1008.73 1009.53 1010.37 1011.16 1011.83 1012.31 1012.61 1012.78 1012.87 1012.96 1013.13 1013.39 1013.73 1014.11 1014.47 1014.74 1014.90 1014.95 1014.92 1014.87 1014.85 1014.91 1015.05 1015.27 1015.53 1015.78 1016.00 1016.16 1016.28 1016.40 1016.54 1016.74 1017.01 1017.35 1017.72 1018.08 1018.41 1018.67 1018.87 1019.03 1019.17 1019.32
1007.99 1008.74 1009.60 1010.51 1011.36 1012.06 1012.57 1012.90 1013.08 1013.19 1013.30 1013.47 1013.73 1014.05 1014.40 1014.71 1014.93 1015.05 1015.08 1015.05 1015.01 1015.03 1015.13 1015.31 1015.54 1015.80 1016.03 1016.21 1016.34 1016.43 1016.52 1016.66 1016.89 1017.20 1017.59 1018.01 1018.41 1018.76 1019.03 1019.22 1019.36 1019.48 1019.62
1007.92 1008.72 1009.64 1010.59 1011.48 1012.22 1012.77 1013.12 1013.34 1013.48 1013.61 1013.80 1014.06 1014.36 1014.67 1014.94 1015.13 1015.23 1015.25 1015.24 1015.25 1015.32 1015.47 1015.69 1015.94 1016.19 1016.38 1016.51 1016.57 1016.61 1016.67 1016.80 1017.03 1017.39 1017.82 1018.29 1018.73 1019.11 1019.39 1019.57 1019.69 1019.78 1019.90
1007.87 1008.69 1009.63 1010.62 1011.53 1012.29 1012.87 1013.26 1013.51 1013.69 1013.85 1014.06 1014.32 1014.62 1014.91 1015.16 1015.34 1015.43 1015.47 1015.50 1015.57 1015.70 1015.90 1016.15 1016.41 1016.63 1016.78 1016.83 1016.82 1016.79 1016.81 1016.92 1017.17 1017.55 1018.02 1018.54 1019.03 1019.43 1019.72 1019.90 1020.00 1020.07 1020.16
1007.85 1008.67 1009.62 1010.60 1011.52 1012.29 1012.88 1013.29 1013.56 1013.78 1013.98 1014.21 1014.49 1014.80 1015.09 1015.34 1015.52 1015.63 1015.71 1015.79 1015.90 1016.09 1016.33 1016.60 1016.86 1017.04 1017.13 1017.12 1017.04 1016.95 1016.92 1017.01 1017.26 1017.67 1018.19 1018.75 1019.28 1019.71 1020.02 1020.20 1020.28 1020.33 1020.40
1007.87 1008.68 1009.61 1010.58 1011.47 1012.22 1012.79 1013.20 1013.50 1013.73 1013.97 1014.24 1014.55 1014.88 1015.19 1015.46 1015.66 1015.80 1015.91 1016.03 1016.19 1016.40 1016.66 1016.94 1017.18 1017.33 1017.37 1017.30 1017.16 1017.03 1016.97 1017.05 1017.31 1017.75 1018.30 1018.90 1019.47 1019.94 1020.27 1020.46 1020.54 1020.58 1020.63
1007.93 1008.73 1009.63 1010.56 1011.40 1012.11 1012.65 1013.04 1013.33 1013.57 1013.83 1014.14 1014.48 1014.85 1015.20 1015.50 1015.73 1015.91 1016.04 1016.19 1016.36 1016.58 1016.84 1017.10 1017.32 1017.43 1017.44 1017.34 1017.18 1017.03 1016.97 1017.06 1017.34 1017.79 1018.37 1019.01 1019.61 1020.11 1020.47 1020.68 1020.78 1020.82 1020.86
1008.02 1008.81 1009.69 1010.57 1011.35 1011.99 1012.47 1012.82 1013.09 1013.34 1013.61 1013.95 1014.33 1014.74 1015.13 1015.47 1015.73 1015.93 1016.09 1016.24 1016.41 1016.61 1016.85 1017.08 1017.26 1017.36 1017.36 1017.26 1017.11 1016.98 1016.95 1017.06 1017.35 1017.83 1018.43 1019.08 1019.71 1020.24 1020.63 1020.87 1021.00 1021.05 1021.10
1008.13 1008.93 1009.78 1010.60 1011.32 1011.89 1012.30 1012.60 1012.83 1013.07 1013.35 1013.70 1014.12 1014.56 1014.99 1015.37 1015.67 1015.89 1016.05 1016.19 1016.34 1016.52 1016.71 1016.91 1017.07 1017.16 1017.17 1017.11 1017.01 1016.93 1016.94 1017.08 1017.40 1017.88 1018.48 1019.14 1019.77 1020.32 1020.74 1021.02 1021.19 1021.28 1021.34
1008.25 1009.06 1009.89 1010.67 1011.31 1011.81 1012.16 1012.40 1012.60 1012.81 1013.09 1013.45 1013.89 1014.36 1014.83 1015.24 1015.56 1015.80 1015.97 1016.10 1016.21 1016.35 1016.51 1016.68 1016.83 1016.93 1016.98 1016.97 1016.94 1016.93 1016.99 1017.18 1017.50 1017.98 1018.55 1019.19 1019.80 1020.35 1020.80 1021.12 1021.33 1021.47 1021.57
1008.37 1009.19 1010.01 1010.74 1011.33 1011.77 1012.06 1012.26 1012.42 1012.60 1012.87 1013.23 1013.67 1014.16 1014.65 1015.08 1015.43 1015.69 1015.86 1015.98 1016.09 1016.19 1016.32 1016.47 1016.62 1016.75 1016.85 1016.91 1016.96 1017.02 1017.14 1017.35 1017.68 1018.12 1018.65 1019.22 1019.80 1020.33 1020.78 1021.14 1021.40 1021.59 1021.74
1008.48 1009.31 1010.11 1010.81 1011.36 1011.75 1012.01 1012.18 1012.31 1012.48 1012.72 1013.06 1013.49 1013.98 1014.47 1014.92 1015.29 1015.57 1015.76 1015.90 1016.00 1016.10 1016.22 1016.37 1016.53 1016.70 1016.85 1016.99 1017.11 1017.23 1017.40 1017.62 1017.91 1018.29 1018.75 1019.24 1019.75 1020.24 1020.68 1021.06 1021.36 1021.61 1021.81
1008.58 1009.41 1010.19 1010.86 1011.38 1011.76 1012.00 1012.16 1012.28 1012.43 1012.65 1012.96 1013.35 1013.81 1014.29 1014.74 1015.13 1015.45 1015.68 1015.84 1015.97 1016.10 1016.24 1016.40 1016.59 1016.79 1016.99 1017.19 1017.37 1017.54 1017.72 1017.93 1018.18 1018.49 1018.84 1019.23 1019.65 1020.08 1020.49 1020.87 1021.21 1021.50 1021.75
1008.70 1009.50 1010.24 1010.88 1011.39 1011.76 1012.02 1012.19 1012.31 1012.45 1012.64 1012.91 1013.25 1013.67 1014.11 1014.55 1014.96 1015.31 1015.59 1015.81 1016.00 1016.17 1016.34 1016.54 1016.76 1017.00 1017.24 1017.48 1017.70 1017.90 1018.09 1018.27 1018.46 1018.67 1018.92 1019.20 1019.51 1019.86 1020.21 1020.58 1020.93 1021.26 1021.56
1008.82 1009.57 1010.26 1010.87 1011.37 1011.76 1012.04 1012.24 1012.39 1012.53 1012.69 1012.91 1013.19 1013.54 1013.93 1014.35 1014.76 1015.14 1015.48 1015.78 1016.03 1016.27 1016.50 1016.74 1016.99 1017.26 1017.53 1017.80 1018.04 1018.25 1018.43 1018.58 1018.71 1018.84 1018.98 1019.15 1019.36 1019.61 1019.90 1020.22 1020.56 1020.90 1021.23
1008.93 1009.61 1010.24 1010.81 1011.31 1011.73 1012.06 1012.31 1012.49 1012.64 1012.78 1012.94 1013.16 1013.43 1013.76 1014.14 1014.54 1014.95 1015.34 1015.71 1016.04 1016.35 1016.64 1016.93 1017.21 1017.51 1017.80 1018.08 1018.33 1018.55 1018.72 1018.85 1018.94 1019.00 1019.05 1019.12 1019.22 1019.38 1019.59 1019.85 1020.15 1020.48 1020.81
1009.02 1009.61 1010.17 1010.71 1011.21 1011.66 1012.05 1012.36 1012.59 1012.76 1012.89 1013.01 1013.15 1013.35 1013.61 1013.93 1014.32 1014.74 1015.17 1015.60 1016.00 1016.38 1016.72 1017.05 1017.36 1017.67 1017.97 1018.26 1018.53 1018.76 1018.94 1019.06 1019.13 1019.15 1019.14 1019.14 1019.15 1019.21 1019.34 1019.52 1019.76 1020.05 1020.35
1009.06 1009.56 1010.05 1010.55 1011.05 1011.54 1011.99 1012.37 1012.66 1012.87 1013.00 1013.09 1013.18 1013.30 1013.49 1013.76 1014.11 1014.53 1014.98 1015.45 1015.90 1016.32 1016.71 1017.07 1017.40 1017.71 1018.03 1018.33 1018.61 1018.87 1019.07 1019.22 1019.30 1019.31 1019.28 1019.22 1019.17 1019.15 1019.18 1019.27 1019.43 1019.65 1019.90
1009.03 1009.45 1009.87 1010.34 1010.84 1011.36 1011.87 1012.33 1012.69 1012.94 1013.10 1013.18 1013.23 1013.30 1013.42 1013.64 1013.95 1014.34 1014.80 1015.28 1015.75 1016.20 1016.61 1016.97 1017.31 1017.63 1017.95 1018.27 1018.58 1018.87 1019.12 1019.31 1019.43 1019.47 1019.44 1019.37 1019.27 1019.18 1019.13 1019.12 1019.19 1019.31 1019.50
1008.91 1009.26 1009.63 1010.07 1010.57 1011.12 1011.69 1012.20 1012.63 1012.95 1013.14 1013.23 1013.27 1013.31 1013.39 1013.56 1013.83 1014.19 1014.63 1015.10 1015.57 1016.01 1016.42 1016.78 1017.12 1017.44 1017.77 1018.10 1018.44 1018.78 1019.08 1019.33 1019.51 1019.60 1019.60 1019.53 1019.41 1019.28 1019.15 1019.06 1019.02 1019.06 1019.16
1008.72 1009.02 1009.35 1009.76 1010.26 1010.82 1011.42 1011.99 1012.48 1012.85 1013.08 1013.21 1013.26 1013.29 1013.36 1013.50 1013.73 1014.06 1014.47 1014.91 1015.36 1015.79 1016.17 1016.53 1016.85 1017.17 1017.50 1017.85 1018.22 1018.60 1018.96 1019.28 1019.52 1019.66 1019.70 1019.65 1019.53 1019.37 1019.19 1019.03 1018.91 1018.86 1018.88
1008.47 1008.75 1009.05 1009.43 1009.91 1010.47 1011.07 1011.67 1012.19 1012.61 1012.89 1013.06 1013.14 1013.19 1013.27 1013.40 1013.62 1013.92 1014.30 1014.71 1015.13 1015.52 1015.89 1016.22 1016.53 1016.84 1017.17 1017.54 1017.93 1018.35 1018.75 1019.11 1019.41 1019.60 1019.69 1019.67 1019.56 1019.39 1019.18 1018.98 1018.80 1018.69 1018.65
Thickness
5810 5805 5800 5797 5794 5792 5789 5787 5785 5783 5781 5779 5777 5775 5774 5772 5771 5769 5768 5766 5765 5764 5762 5761 5760 5758 5757 5756 5755 5754 5753 5752 5752 5751 5749 5748 5747 5745 5744 5743 5742 5740 5738
5813 5804 5799 5796 5793 5790 5788 5785 5783 5781 5779 5777 5775 5773 5772 5770 5769 5767 5766 5765 5763 5762 5760 5759 5758 5757 5755 5754 5753 5752 5752 5751 5750 5749 5747 5746 5744 5743 5742 5741 5740 5738 5736
5812 5803 5797 5794 5791 5789 5786 5783 5781 5779 5777 5775 5773 5771 5770 5768 5767 5766 5764 5763 5761 5760 5759 5757 5756 5755 5754 5752 5751 5751 5750 5749 5748 5748 5746 5744 5741 5740 5740 5739 5737 5736 5735
5812 5803 5797 5792 5789 5786 5784 5781 5779 5777 5775 5773 5771 5769 5768 5767 5765 5764 5763 5761 5759 5758 5757 5756 5755 5753 5752 5751 5750 5750 5749 5748 5747 5747 5746 5743 5740 5738 5737 5736 5735 5734 5733
5811 5803 5794 5790 5787 5784 5782 5779 5777 5775 5773 5771 5769 5768 5766 5765 5763 5762 5761 5759 5758 5756 5755 5754 5752 5751 5750 5749 5749 5748 5748 5747 5746 5745 5744 5741 5738 5736 5735 5734 5733 5732 5731
5809 5801 5792 5788 5784 5782 5779 5777 5775 5772 5771 5769 5768 5766 5764 5763 5761 5760 5759 5757 5756 5755 5753 5752 5750 5749 5748 5747 5747 5747 5746 5746 5745 5745 5742 5739 5736 5734 5733 5732 5731 5730 5729
5808 5799 5790 5785 5782 5779 5777 5775 5773 5770 5769 5767 5765 5764 5762 5761 5759 5758 5757 5755 5754 5753 5751 5750 5748 5747 5747 5746 5746 5746 5746 5746 5746 5744 5740 5737 5734 5732 5731 5730 5729 5728 5728
5806 5797 5787 5782 5779 5776 5774 5772 5770 5768 5766 5765 5763 5762 5761 5759 5758 5756 5755 5753 5752 5750 5749 5748 5746 5745 5745 5745 5745 5745 5745 5745 5745 5743 5739 5734 5732 5730 5729 5728 5728 5727 5726
5806 5795 5786 5781 5777 5774 5771 5769 5767 5765 5764 5763 5761 5760 5759 5757 5756 5754 5753 5751 5750 5748 5747 5746 5745 5744 5743 5743 5744 5744 5744 5745 5745 5742 5738 5733 5730 5729 5728 5727 5726 5725 5725
5802 5794 5786 5781 5776 5772 5769 5766 5764 5763 5762 5761 5760 5758 5757 5756 5754 5753 5751 5750 5748 5747 5746 5744 5744 5743 5742 5743 5743 5744 5744 5744 5744 5741 5736 5732 5729 5727 5726 5725 5725 5724 5723
5797 5791 5787 5781 5776 5773 5769 5765 5762 5761 5760 5758 5758 5757 5756 5755 5754 5752 5751 5749 5747 5746 5745 5744 5743 5742 5742 5742 5743 5743 5743 5743 5742 5740 5735 5731 5728 5726 5725 5724 5723 5722 5722
5791 5789 5786 5782 5777 5774 5771 5764 5762 5761 5758 5758 5757 5756 5756 5755 5754 5752 5749 5748 5747 5745 5744 5743 5743 5742 5742 5742 5743 5743 5744 5743 5741 5738 5733 5730 5728 5726 5724 5723 5722 5721 5720
5792 5788 5784 5781 5778 5775 5770 5765 5763 5761 5758 5758 5757 5756 5756 5755 5753 5751 5749 5747 5746 5745 5744 5743 5742 5743 5742 5743 5743 5744 5744 5743 5740 5737 5732 5729 5727 5725 5723 5722 5721 5720 5719
5789 5784 5781 5778 5776 5773 5770 5766 5763 5761 5758 5758 5756 5756 5756 5755 5754 5752 5751 5749 5747 5747 5746 5745 5745 5745 5744 5744 5744 5745 5744 5742 5739 5735 5731 5729 5727 5725 5723 5722 5720 5719 5718
5786 5781 5778 5774 5771 5770 5767 5765 5763 5761 5758 5758 5756 5755 5755 5755 5754 5753 5751 5750 5750 5749 5748 5747 5747 5745 5744 5743 5744 5744 5743 5741 5739 5735 5731 5728 5726 5724 5723 5721 5720 5719 5718
5783 5777 5774 5771 5768 5765 5763 5762 5761 5759 5757 5757 5756 5755 5755 5755 5754 5752 5751 5750 5750 5750 5749 5748 5748 5746 5745 5744 5744 5743 5742 5741 5738 5735 5731 5728 5726 5724 5723 5721 5720 5719 5717
5781 5775 5770 5767 5765 5762 5759 5759 5759 5758 5757 5756 5756 5755 5754 5754 5753 5752 5751 5750 5751 5750 5750 5749 5747 5746 5745 5744 5743 5743 5741 5740 5739 5736 5731 5729 5726 5725 5723 5722 5720 5719 5718
5780 5772 5768 5766 5762 5758 5756 5756 5758 5757 5757 5755 5754 5753 5752 5753 5753 5752 5751 5750 5750 5749 5749 5748 5747 5745 5745 5743 5742 5742 5741 5740 5739 5737 5734 5731 5729 5726 5724 5722 5721 5719 5718
5778 5771 5766 5764 5759 5756 5754 5754 5755 5755 5755 5754 5753 5752 5751 5752 5752 5751 5751 5750 5750 5749 5748 5749 5747 5746 5743 5742 5742 5742 5741 5740 5739 5738 5736 5734 5731 5729 5726 5723 5722 5720 5719
5777 5770 5764 5761 5758 5755 5753 5752 5752 5752 5752 5752 5751 5751 5751 5751 5751 5750 5750 5749 5749 5749 5747 5746 5745 5745 5743 5742 5743 5742 5742 5742 5741 5740 5738 5737 5734 5732 5729 5726 5723 5722 5720
5774 5768 5763 5758 5756 5754 5751 5749 5747 5747 5748 5750 5751 5750 5750 5750 5750 5750 5750 5749 5749 5748 5747 5746 5745 5743 5742 5743 5739 5736 5739 5742 5741 5741 5740 5739 5737 5735 5732 5729 5727 5725 5723
5772 5767 5763 5759 5757 5755 5752 5750 5749 5748 5748 5749 5750 5749 5749 5749 5749 5750 5749 5748 5748 5747 5746 5745 5744 5741 5741 5743 5738 5731 5727 5730 5736 5743 5741 5739 5739 5737 5735 5733 5731 5729 5727
5771 5768 5765 5761 5758 5755 5753 5750 5749 5747 5746 5746 5745 5746 5748 5748 5749 5749 5749 5749 5748 5747 5744 5744 5743 5740 5738 5741 5742 5734 5726 5722 5729 5736 5740 5740 5739 5738 5737 5736 5734 5732 5730
5774 5770 5766 5762 5759 5756 5754 5750 5746 5743 5742 5744 5745 5745 5747 5748 5749 5749 5749 5748 5747 5746 5745 5744 5744 5743 5740 5737 5740 5741 5739 5735 5727 5725 5733 5739 5740 5738 5738 5738 5737 5734 5732
5777 5773 5769 5764 5760 5757 5755 5752 5748 5745 5744 5745 5746 5745 5745 5747 5748 5749 5748 5747 5746 5746 5745 5744 5744 5743 5741 5739 5738 5739 5738 5737 5736 5727 5723 5730 5735 5738 5739 5738 5737 5735 5733
5779 5775 5769 5764 5760 5757 5755 5753 5750 5747 5745 5743 5743 5742 5744 5745 5747 5748 5748 5747 5746 5745 5745 5744 5743 5741 5740 5740 5740 5740 5737 5734 5732 5731 5726 5727 5728 5734 5738 5738 5737 5735 5734